SP4MAZ-13 Weather Reports


Display with metric or nautical units.
time (UTC)temp
F
wind
direction
speed
MPH
gust
MPH
rain 1hr
in
rain 24hr
in
rain mn
in
humidity
%
barometer
mb
20260506160939 70 238 8.0 0.0 0.00 0.00 0.00 53 2147.4
20260506160435 71 238 8.0 0.0 0.00 0.00 0.00 51 2147.4
20260506155932 72 238 8.0 0.0 0.00 0.00 0.00 51 2147.4
20260506155431 72 238 8.0 0.0 0.00 0.00 0.00 50 2147.4
20260506154927 70 207 8.0 0.0 0.00 0.00 0.00 58 2147.4
20260506154425 69 207 8.0 0.0 0.00 0.00 0.00 58 2147.4
20260506153921 69 207 8.0 0.0 0.00 0.00 0.00 59 2147.4
20260506153417 69 207 8.0 0.0 0.00 0.00 0.00 58 2147.4
20260506152916 70 207 8.0 0.0 0.00 0.00 0.00 57 2147.4
20260506152413 69 207 8.0 0.0 0.00 0.00 0.00 60 2147.4
20260506151909 67 207 8.0 0.0 0.00 0.00 0.00 66 2147.4
20260506151405 67 207 8.0 0.0 0.00 0.00 0.00 67 2147.4
20260506150902 66 207 8.0 0.0 0.00 0.00 0.00 70 2147.4
20260506150358 66 207 8.0 0.0 0.00 0.00 0.00 73 2147.4
20260506145855 67 207 8.0 0.0 0.00 0.00 0.00 68 2147.4
20260506145352 68 207 8.0 0.0 0.00 0.00 0.00 62 2147.4
20260506144851 68 207 8.0 0.0 0.00 0.00 0.00 64 2147.4
20260506144348 67 207 8.0 0.0 0.00 0.00 0.00 66 2147.4
20260506143844 66 207 8.0 0.0 0.00 0.00 0.00 65 2147.4
20260506143341 66 207 8.0 0.0 0.00 0.00 0.00 65 2147.4
20260506142838 68 207 8.0 0.0 0.00 0.00 0.00 60 2147.4
20260506142337 67 207 8.0 0.0 0.00 0.00 0.00 58 2147.4
20260506141833 67 207 8.0 0.0 0.00 0.00 0.00 59 2147.4
20260506141330 68 207 8.0 0.0 0.00 0.00 0.00 59 2147.4
20260506140826 67 207 8.0 0.0 0.00 0.00 0.00 60 2147.4
20260506140323 65 207 8.0 0.0 0.00 0.00 0.00 67 2147.4
20260506135820 65 207 8.0 0.0 0.00 0.00 0.00 64 2147.4
20260506135318 67 207 8.0 0.0 0.00 0.00 0.00 63 2147.4
20260506134815 68 207 8.0 0.0 0.00 0.00 0.00 55 2147.4
20260506134311 67 207 8.0 0.0 0.00 0.00 0.00 61 2147.4
20260506133808 65 146 5.0 0.0 0.00 0.00 0.00 66 2147.4
20260506133305 66 146 5.0 0.0 0.00 0.00 0.00 64 2147.4
20260506132801 70 146 5.0 0.0 0.00 0.00 0.00 54 2147.4
20260506132259 70 146 5.0 0.0 0.00 0.00 0.00 53 2147.4
20260506131756 70 146 5.0 0.0 0.00 0.00 0.00 51 2147.4
20260506131253 74 146 5.0 0.0 0.00 0.00 0.00 46 2147.4
20260506130750 73 146 5.0 0.0 0.00 0.00 0.00 47 2147.4
20260506130246 69 146 5.0 0.0 0.00 0.00 0.00 56 2147.4
20260506125742 72 146 5.0 0.0 0.00 0.00 0.00 49 2147.4
20260506125241 68 146 5.0 0.0 0.00 0.00 0.00 58 2147.4
20260506124737 76 146 5.0 0.0 0.00 0.00 0.00 43 2147.4
20260506124233 75 146 5.0 0.0 0.00 0.00 0.00 46 2147.4
20260506123730 74 146 5.0 0.0 0.00 0.00 0.00 46 2147.4
20260506123228 70 146 5.0 0.0 0.00 0.00 0.00 50 2147.4
20260506122724 73 146 5.0 0.0 0.00 0.00 0.00 48 2147.4
20260506122222 70 146 5.0 0.0 0.00 0.00 0.00 51 2147.4
20260506121721 71 146 5.0 0.0 0.00 0.00 0.00 51 2147.4
20260506121218 69 146 5.0 0.0 0.00 0.00 0.00 53 2147.4
20260506120714 68 146 5.0 0.0 0.00 0.00 0.00 55 2147.4
20260506115707 65 146 5.0 0.0 0.00 0.00 0.00 61 2147.4
20260506115205 64 146 6.0 0.0 0.00 0.00 0.00 63 2147.4
20260506114659 63 120 1.0 0.0 0.00 0.00 0.00 67 2147.4
20260506114155 64 120 1.0 0.0 0.00 0.00 0.00 62 2147.4
20260506113651 64 120 1.0 0.0 0.00 0.00 0.00 63 2147.4
20260506113150 65 120 1.0 0.0 0.00 0.00 0.00 60 2147.4
20260506112646 66 120 1.0 0.0 0.00 0.00 0.00 56 2147.4
20260506112145 67 120 1.0 0.0 0.00 0.00 0.00 56 2147.4
20260506111643 67 120 1.0 0.0 0.00 0.00 0.00 56 2147.4
20260506111139 64 120 1.0 0.0 0.00 0.00 0.00 63 2147.4
20260506110635 64 120 1.0 0.0 0.00 0.00 0.00 61 2147.4
20260506110132 67 120 1.0 0.0 0.00 0.00 0.00 57 2147.4
20260506105628 68 120 1.0 0.0 0.00 0.00 0.00 55 2147.4
20260506105125 66 120 1.0 0.0 0.00 0.00 0.00 59 2147.4
20260506104623 63 120 1.0 0.0 0.00 0.00 0.00 63 2147.4
20260506104120 66 120 1.0 0.0 0.00 0.00 0.00 56 2147.4
20260506103618 66 120 1.0 0.0 0.00 0.00 0.00 58 2147.4
20260506103114 62 120 1.0 0.0 0.00 0.00 0.00 68 2147.4
20260506102612 59 120 1.0 0.0 0.00 0.00 0.00 78 2147.4
20260506102109 60 120 1.0 0.0 0.00 0.00 0.00 78 2147.4
20260506101606 59 120 1.0 0.0 0.00 0.00 0.00 77 2147.4
20260506101105 61 120 1.0 0.0 0.00 0.00 0.00 72 2147.4
20260506100601 60 120 1.0 0.0 0.00 0.00 0.00 73 2147.4
20260506100057 59 120 1.0 0.0 0.00 0.00 0.00 75 2147.4
20260506095556 61 120 1.0 0.0 0.00 0.00 0.00 69 2147.4
20260506095054 60 120 1.0 0.0 0.00 0.00 0.00 71 2147.4
20260506094550 61 120 1.0 0.0 0.00 0.00 0.00 69 2147.4
20260506094048 59 120 1.0 0.0 0.00 0.00 0.00 76 2147.4
20260506093042 59 120 1.0 0.0 0.00 0.00 0.00 75 2147.4
20260506092541 58 120 1.0 0.0 0.00 0.00 0.00 75 2147.4
20260506092038 59 120 1.0 0.0 0.00 0.00 0.00 74 2147.4
20260506091033 58 120 1.0 0.0 0.00 0.00 0.00 72 2147.4
20260506090531 57 120 1.0 0.0 0.00 0.00 0.00 79 2147.4
20260506090028 59 120 1.0 0.0 0.00 0.00 0.00 71 2147.4
20260506085526 61 120 1.0 0.0 0.00 0.00 0.00 66 2147.4
20260506085024 61 120 1.0 0.0 0.00 0.00 0.00 66 2147.4
20260506084520 58 120 1.0 0.0 0.00 0.00 0.00 73 2147.4
20260506084019 59 120 1.0 0.0 0.00 0.00 0.00 69 2147.4
20260506083516 60 120 1.0 0.0 0.00 0.00 0.00 68 2147.4
20260506083012 59 120 1.0 0.0 0.00 0.00 0.00 70 2147.4
20260506082509 60 120 1.0 0.0 0.00 0.00 0.00 68 2147.4
20260506082005 58 120 1.0 0.0 0.00 0.00 0.00 73 2147.4
20260506081504 59 120 1.0 0.0 0.00 0.00 0.00 69 2147.4
20260506081000 57 120 1.0 0.0 0.00 0.00 0.00 75 2147.4
20260506080457 56 120 1.0 0.0 0.00 0.00 0.00 82 2147.4
20260506073435 57 120 1.0 0.0 0.00 0.00 0.00 73 2147.4
20260506072933 57 120 1.0 0.0 0.00 0.00 0.00 73 2147.4
20260506072431 57 120 1.0 0.0 0.00 0.00 0.00 75 2147.4
20260506071928 57 120 1.0 0.0 0.00 0.00 0.00 73 2147.4
20260506071426 58 120 1.0 0.0 0.00 0.00 0.00 71 2147.4
20260506070922 56 120 1.0 0.0 0.00 0.00 0.00 76 2147.4
20260506070419 56 120 1.0 0.0 0.00 0.00 0.00 78 2147.4
20260506062354 57 120 1.0 0.0 0.00 0.00 0.00 70 2147.4
20260506061343 55 120 1.0 0.0 0.00 0.00 0.00 76 2147.4
20260506060840 54 120 1.0 0.0 0.00 0.00 0.00 80 2147.4
20260506060336 55 120 1.0 0.0 0.00 0.00 0.00 75 2147.4
20260506051310 53 120 1.0 0.0 0.00 0.00 0.00 92 2147.4
20260506050808 52 120 1.0 0.0 0.00 0.00 0.00 94 2147.4
20260506050305 53 120 1.0 0.0 0.00 0.00 0.00 93 2147.4
20260506044759 52 120 1.0 0.0 0.00 0.00 0.00 96 2147.4
20260506044257 52 120 1.0 0.0 0.00 0.00 0.00 97 2147.4
20260506043756 52 120 1.0 0.0 0.00 0.00 0.00 98 2147.4
20260506043253 51 120 1.0 0.0 0.00 0.00 0.00 99 2147.4
20260506042750 51 120 1.0 0.0 0.00 0.00 0.00 99 2147.4
20260506042248 51 120 1.0 0.0 0.00 0.00 0.00 99 2147.4
20260506041744 50 120 1.0 0.0 0.00 0.00 0.00 99 2147.4
20260506041242 50 120 1.0 0.0 0.00 0.00 0.00 99 2147.4
20260506040741 50 120 1.0 0.0 0.00 0.00 0.00 99 2147.4
20260506040239 51 120 1.0 0.0 0.00 0.00 0.00 99 2147.4
20260506035735 50 120 1.0 0.0 0.00 0.00 0.00 99 2147.4
20260506035232 50 120 1.0 0.0 0.00 0.00 0.00 99 2147.4
20260506034730 50 120 1.0 0.0 0.00 0.00 0.00 99 2147.4
20260506034226 49 120 1.0 0.0 0.00 0.00 0.00 99 2147.4
20260506033722 49 120 1.0 0.0 0.00 0.00 0.00 99 2147.4
20260506033219 49 120 1.0 0.0 0.00 0.00 0.00 99 2147.4
20260506032717 49 120 1.0 0.0 0.00 0.00 0.00 99 2147.4
20260506032214 49 120 1.0 0.0 0.00 0.00 0.00 99 2147.4
20260506031712 49 120 1.0 0.0 0.00 0.00 0.00 99 2147.4
20260506031211 49 120 1.0 0.0 0.00 0.00 0.00 99 2147.4
20260506030707 49 120 1.0 0.0 0.00 0.00 0.00 99 2147.4
20260506030204 49 120 1.0 0.0 0.00 0.00 0.00 99 2147.4
20260506025703 49 120 1.0 0.0 0.00 0.00 0.00 99 2147.4
20260506025159 49 120 1.0 0.0 0.00 0.00 0.00 99 2147.4
20260506024658 49 120 1.0 0.0 0.00 0.00 0.00 99 2147.4
20260506024156 49 120 1.0 0.0 0.00 0.00 0.00 99 2147.4
20260506023652 49 120 1.0 0.0 0.00 0.00 0.00 99 2147.4
20260506023149 49 120 1.0 0.0 0.00 0.00 0.00 99 2147.4
20260506022645 49 120 1.0 0.0 0.00 0.00 0.00 99 2147.4
20260506022143 49 120 1.0 0.0 0.00 0.00 0.00 99 2147.4
20260506021642 48 120 1.0 0.0 0.00 0.00 0.00 99 2147.4
20260506021139 48 120 1.0 0.0 0.00 0.00 0.00 99 2147.4
20260506020636 48 120 1.0 0.0 0.00 0.00 0.00 99 2147.4
20260506020133 48 120 1.0 0.0 0.00 0.00 0.00 99 2147.4
20260506015632 48 120 1.0 0.0 0.00 0.00 0.00 99 2147.4
20260506015128 48 120 1.0 0.0 0.00 0.00 0.00 99 2147.4
20260506014625 48 120 1.0 0.0 0.00 0.00 0.00 99 2147.4
20260506014123 48 120 1.0 0.0 0.00 0.00 0.00 99 2147.4
20260506013619 48 120 1.0 0.0 0.00 0.00 0.00 99 2147.4
20260506013116 48 120 1.0 0.0 0.00 0.00 0.00 99 2147.4
20260506012615 48 120 1.0 0.0 0.00 0.00 0.00 99 2147.4
20260506012112 48 120 1.0 0.0 0.00 0.00 0.00 99 2147.4
20260506011609 48 120 1.0 0.0 0.00 0.00 0.00 99 2147.4
20260506011105 48 120 1.0 0.0 0.00 0.00 0.00 99 2147.4
20260506010602 48 120 1.0 0.0 0.00 0.00 0.00 99 2147.4
20260506010058 49 120 1.0 0.0 0.00 0.00 0.00 99 2147.4
20260506005555 48 120 1.0 0.0 0.00 0.00 0.00 99 2147.4
20260506005052 48 120 1.0 0.0 0.00 0.00 0.00 99 2147.4
20260506004548 48 120 1.0 0.0 0.00 0.00 0.00 99 2147.4
20260506004044 48 120 1.0 0.0 0.00 0.00 0.00 99 2147.4
20260506003541 48 120 1.0 0.0 0.00 0.00 0.00 99 2147.4
20260506003037 48 120 1.0 0.0 0.00 0.00 0.00 99 2147.4
20260506002534 48 120 1.0 0.0 0.00 0.00 0.00 99 2147.4
20260506002030 48 120 1.0 0.0 0.00 0.00 0.00 99 2147.4
20260506001529 48 120 1.0 0.0 0.00 0.00 0.00 99 2147.4
20260506001025 48 120 1.0 0.0 0.00 0.00 0.00 99 2147.4
20260506000522 48 120 1.0 0.0 0.00 0.00 0.00 99 2147.4
20260506000018 48 120 1.0 0.0 0.00 0.00 0.00 99 2147.4
20260505235515 48 120 1.0 0.0 0.00 0.00 0.00 99 2147.4
20260505235011 48 120 1.0 0.0 0.00 0.00 0.00 99 2147.4
20260505234508 48 120 1.0 0.0 0.00 0.00 0.00 99 2147.4
20260505234007 48 120 1.0 0.0 0.00 0.00 0.00 99 2147.4
20260505233503 48 120 1.0 0.0 0.00 0.00 0.00 99 2147.4
20260505233001 48 120 1.0 0.0 0.00 0.00 0.00 96 2147.4
20260505232457 49 120 1.0 0.0 0.00 0.00 0.00 97 2147.4
20260505231954 49 120 1.0 0.0 0.00 0.00 0.00 94 2147.4
20260505231450 49 120 1.0 0.0 0.00 0.00 0.00 96 2147.4
20260505230946 49 120 1.0 0.0 0.00 0.00 0.00 94 2147.4
20260505230443 49 120 1.0 0.0 0.00 0.00 0.00 94 2147.4
20260505225940 49 120 1.0 0.0 0.00 0.00 0.00 90 2147.4
20260505225436 49 120 1.0 0.0 0.00 0.00 0.00 91 2147.4
20260505224933 49 120 1.0 0.0 0.00 0.00 0.00 93 2147.4
20260505224429 49 120 1.0 0.0 0.00 0.00 0.00 92 2147.4
20260505223926 49 120 1.0 0.0 0.00 0.00 0.00 92 2147.4
20260505223423 50 120 1.0 0.0 0.00 0.00 0.00 92 2147.4
20260505222919 50 120 1.0 0.0 0.00 0.00 0.00 92 2147.4
20260505222416 50 120 1.0 0.0 0.00 0.00 0.00 91 2147.4
20260505221912 50 120 1.0 0.0 0.00 0.00 0.00 88 2147.4
20260505221409 50 120 1.0 0.0 0.00 0.00 0.00 88 2147.4
20260505220906 50 120 1.0 0.0 0.00 0.00 0.00 83 2147.4
20260505220403 50 120 1.0 0.0 0.00 0.00 0.00 86 2147.4
20260505215859 50 120 1.0 0.0 0.00 0.00 0.00 87 2147.4
20260505215355 50 120 1.0 0.0 0.00 0.00 0.00 85 2147.4
20260505214853 50 120 1.0 0.0 0.00 0.00 0.00 84 2147.4
20260505214349 51 120 1.0 0.0 0.00 0.00 0.00 85 2147.4
20260505213846 51 120 1.0 0.0 0.00 0.00 0.00 85 2147.4
20260505213342 51 120 1.0 0.0 0.00 0.00 0.00 84 2147.4
20260505212839 51 120 1.0 0.0 0.00 0.00 0.00 85 2147.4
20260505212337 51 120 1.0 0.0 0.00 0.00 0.00 86 2147.4
20260505211834 51 120 1.0 0.0 0.00 0.00 0.00 84 2147.4
20260505211333 52 120 1.0 0.0 0.00 0.00 0.00 81 2147.4
20260505210830 52 120 1.0 0.0 0.00 0.00 0.00 82 2147.4
20260505210326 52 120 1.0 0.0 0.00 0.00 0.00 84 2147.4
20260505205822 52 120 1.0 0.0 0.00 0.00 0.00 83 2147.4
20260505205320 52 120 1.0 0.0 0.00 0.00 0.00 82 2147.4
20260505204815 52 120 1.0 0.0 0.00 0.00 0.00 85 2147.4
20260505204314 52 120 1.0 0.0 0.00 0.00 0.00 84 2147.4
20260505203811 52 120 1.0 0.0 0.00 0.00 0.00 82 2147.4
20260505203307 52 120 1.0 0.0 0.00 0.00 0.00 80 2147.4
20260505202804 52 120 1.0 0.0 0.00 0.00 0.00 83 2147.4
20260505202300 52 120 1.0 0.0 0.00 0.00 0.00 80 2147.4
20260505201757 52 120 1.0 0.0 0.00 0.00 0.00 80 2147.4
20260505201255 52 120 1.0 0.0 0.00 0.00 0.00 76 2147.4
20260505200752 52 120 1.0 0.0 0.00 0.00 0.00 77 2147.4
20260505200248 52 120 1.0 0.0 0.00 0.00 0.00 75 2147.4
20260505195747 52 120 1.0 0.0 0.00 0.00 0.00 72 2147.4
20260505195244 52 120 1.0 0.0 0.00 0.00 0.00 72 2147.4
20260505194742 52 120 1.0 0.0 0.00 0.00 0.00 71 2147.4
20260505194238 52 120 1.0 0.0 0.00 0.00 0.00 70 2147.4
20260505193735 52 120 1.0 0.0 0.00 0.00 0.00 69 2147.4
20260505193232 52 120 1.0 0.0 0.00 0.00 0.00 69 2147.4
20260505192728 53 120 1.0 0.0 0.00 0.00 0.00 69 2147.4
20260505192224 53 120 1.0 0.0 0.00 0.00 0.00 73 2147.4
20260505191720 53 120 1.0 0.0 0.00 0.00 0.00 71 2147.4
20260505191217 53 120 1.0 0.0 0.00 0.00 0.00 68 2147.4
20260505190713 53 120 1.0 0.0 0.00 0.00 0.00 68 2147.4
20260505190210 53 120 1.0 0.0 0.00 0.00 0.00 68 2147.4
20260505185706 53 120 1.0 0.0 0.00 0.00 0.00 66 2147.4
20260505185203 53 120 1.0 0.0 0.00 0.00 0.00 67 2147.4
20260505184702 53 120 1.0 0.0 0.00 0.00 0.00 67 2147.4
20260505184158 54 120 1.0 0.0 0.00 0.00 0.00 69 2147.4
20260505183655 54 120 1.0 0.0 0.00 0.00 0.00 68 2147.4
20260505183151 54 120 1.0 0.0 0.00 0.00 0.00 68 2147.4
20260505182144 55 120 1.0 0.0 0.00 0.00 0.00 70 2147.4
20260505181640 55 120 1.0 0.0 0.00 0.00 0.00 71 2147.4
20260505181139 55 120 1.0 0.0 0.00 0.00 0.00 74 2147.4
20260505180636 55 120 1.0 0.0 0.00 0.00 0.00 69 2147.4
20260505180133 56 120 1.0 0.0 0.00 0.00 0.00 68 2147.4
20260505175632 56 120 1.0 0.0 0.00 0.00 0.00 70 2147.4
20260505175130 56 120 1.0 0.0 0.00 0.00 0.00 74 2147.4
20260505174626 57 120 1.0 0.0 0.00 0.00 0.00 76 2147.4
20260505174125 58 120 1.0 0.0 0.00 0.00 0.00 83 2147.4
20260505173622 58 120 1.0 0.0 0.00 0.00 0.00 90 2147.4
20260505173120 58 120 1.0 0.0 0.00 0.00 0.00 89 2147.4
20260505172617 57 120 1.0 0.0 0.00 0.00 0.00 92 2147.4
20260505172114 58 120 1.0 0.0 0.00 0.00 0.00 89 2147.4
20260505171610 58 120 1.0 0.0 0.00 0.00 0.00 91 2147.4
20260505171107 58 120 1.0 0.0 0.00 0.00 0.00 89 2147.4
20260505170606 58 120 1.0 0.0 0.00 0.00 0.00 90 2147.4
20260505165601 58 120 1.0 0.0 0.00 0.00 0.00 86 2147.4
20260505165057 58 120 1.0 0.0 0.00 0.00 0.00 87 2147.4
20260505164554 59 120 1.0 0.0 0.00 0.00 0.00 83 2147.4
20260505164050 59 120 1.0 0.0 0.00 0.00 0.00 83 2147.4
20260505163547 59 120 1.0 0.0 0.00 0.00 0.00 80 2147.4
20260505163046 60 120 1.0 0.0 0.00 0.00 0.00 80 2147.4
20260505162542 59 120 1.0 0.0 0.00 0.00 0.00 82 2147.4
20260505162038 60 120 1.0 0.0 0.00 0.00 0.00 81 2147.4
20260505161535 60 120 1.0 0.0 0.00 0.00 0.00 79 2147.4